Abha, Saudi Arabia

10:20 AM +03 on July 24, 2019 (GMT +0300)
Abha

Weather History for OEAB - May, 2019

Change the Weather History Date:

Tuesday, May 7, 2019

  Actual Average Record
Temperature  
Mean Temperature 73 °F -  
Max Temperature 87 °F 81 °F 87 °F (2019)
Min Temperature 59 °F 59 °F 53 °F (1998)
Cooling Degree Days 8    
Growing Degree Days 23 (Base 50)    
Moisture  
Dew Point 42 °F    
Average Humidity 39    
Maximum Humidity 68    
Minimum Humidity 7    
Precipitation  
Precipitation 0.00 in - - ()
Sea Level Pressure  
Sea Level Pressure 30.29 in    
Wind  
Wind Speed 4 mph ()    
Max Wind Speed 12 mph    
Max Gust Speed 21 mph    
Visibility 6.2 miles    
Events      
Averages and records for this station are not official NWS values.
T = Trace of Precipitation, MM = Missing Value Source: Averaged Metar Reports

Daily Weather History Graph

Daily Weather History Graph

Search for Another Location

Airport or City:

Astronomy

May. 07, 2019 Rise Set
Actual Time 5:39 AM +03 6:32 PM +03
Civil Twilight 5:16 AM +03 6:55 PM +03
Nautical Twilight 4:49 AM +03 7:22 PM +03
Astronomical Twilight 4:22 AM +03 7:50 PM +03
Moon 7:35 AM +03 (5/7) 8:59 PM +03 (5/7)
Length of Visible Light 13h 38m
Length of Day
12h 52m
Waxing Crescent, 7% of the Moon is Illuminated
May 7
Waxing Crescent
May 12
First Quarter
May 19
Full
May 26
Last Quarter
Jun 3
New

Hourly Weather History & Observations

Time (+03) Temp. Dew Point Humidity Pressure Visibility Wind Dir Wind Speed Gust Speed Precip Events Conditions
12:00 AM 62.6 °F 50.0 °F 63% 30.33 in 6.2 mi SSW 3.5 mph - N/A   Partly Cloudy
1:00 AM 62.6 °F 48.2 °F 59% 30.30 in 6.2 mi Calm Calm - N/A   Partly Cloudy
2:00 AM 60.8 °F 48.2 °F 63% 30.30 in - Calm Calm - N/A   Clear
3:00 AM 60.8 °F 48.2 °F 63% 30.30 in - Calm Calm - N/A   Clear
4:00 AM 59.0 °F 48.2 °F 67% 30.30 in - Calm Calm - N/A   Clear
5:00 AM 59.0 °F 48.2 °F 67% 30.30 in - Calm Calm - N/A   Clear
6:00 AM 60.8 °F 44.6 °F 55% 30.30 in - Calm Calm - N/A   Clear
7:00 AM 64.4 °F 42.8 °F 45% 30.30 in - Calm Calm - N/A   Clear
8:00 AM 73.4 °F 30.2 °F 20% 30.33 in - ENE 8.1 mph - N/A   Clear
9:00 AM 77.0 °F 30.2 °F 18% 30.33 in - ENE 9.2 mph - N/A   Clear
10:00 AM 80.6 °F 28.4 °F 15% 30.33 in - NNE 4.6 mph - N/A   Clear
11:00 AM 82.4 °F 26.6 °F 13% 30.33 in - East 9.2 mph - N/A   Clear
12:00 PM 86.0 °F 28.4 °F 12% 30.30 in 6.2 mi ENE 6.9 mph - N/A   Partly Cloudy
1:00 PM 87.8 °F 21.2 °F 9% 30.27 in 6.2 mi ENE 6.9 mph - N/A   Partly Cloudy
2:00 PM 87.8 °F 30.2 °F 13% 30.24 in 6.2 mi NE 11.5 mph - N/A   Scattered Clouds
3:00 PM 87 °F 32 °F 7%  in 6 mi East 11.5 mph - -   Partly Cloudy
3:00 PM 86.0 °F 32.0 °F 14% 30.24 in 6.2 mi East 11.5 mph - N/A   Scattered Clouds
4:00 PM 84.2 °F 32.0 °F 15% 30.21 in 6.2 mi SE 4.6 mph - N/A   Partly Cloudy
5:00 PM 78.8 °F 53.6 °F 42% 30.48 in 6.2 mi SSW 8.1 mph - N/A   Partly Cloudy
6:00 PM 73.4 °F 50.0 °F 44% 30.24 in 6.2 mi SSW 8.1 mph - N/A   Partly Cloudy
7:00 PM 71.6 °F 51.8 °F 50% 30.24 in 6.2 mi SSW 9.2 mph 20.7 mph N/A   Partly Cloudy
8:00 PM 71.6 °F 53.6 °F 53% 30.24 in - South 4.6 mph - N/A   Clear
10:00 PM 69.8 °F 59.0 °F 68% 30.24 in - South 3.5 mph - N/A   Clear
11:00 PM 69.8 °F 59.0 °F 68% 30.27 in - South 3.5 mph - N/A   Clear